ENGINEERING TRACK TESTING
Weather & Rail Temperature Monitoring

Weather station SUSQUEHANNA

Susquehanna Bridge

Measurement History

Home Current History Weekly graphs

,

to download data from the start of , to the end of ,

Conditions for past 24 hours (since 09/01/2026 01:31 AM)

Time null null null null Outside Air
Temperature
Solar
Radiation
Max. Wind Humidity Air Pressure Rain
SpeedDir
09/02/2026 01:15 AM         74.6 °F 0 watt/m2 3 mph ESE 66 % 30.096 in Hg 0 in
09/02/2026 01:00 AM         74.9 °F 0 watt/m2 3 mph ESE 66 % 30.11 in Hg 0 in
09/02/2026 12:45 AM         74.8 °F 0 watt/m2 3 mph NE 66 % 30.115 in Hg 0 in
09/02/2026 12:30 AM         74.9 °F 0 watt/m2 5 mph NE 66 % 30.104 in Hg 0 in
09/02/2026 12:15 AM         74.9 °F 0 watt/m2 6 mph NE 65 % 30.104 in Hg 0 in
09/02/2026 12:00 AM         75.4 °F 0 watt/m2 8 mph N 65 % 30.103 in Hg 0 in
09/01/2026 11:45 PM         76.1 °F 0 watt/m2 6 mph ESE 64 % 30.091 in Hg 0 in
09/01/2026 11:30 PM         75.7 °F 0 watt/m2 13 mph NNW 63 % 30.06 in Hg 0 in
09/01/2026 11:15 PM         75.4 °F 0 watt/m2 14 mph NNW 63 % 30.045 in Hg 0 in
09/01/2026 11:00 PM         75.7 °F 0 watt/m2 16 mph NNW 63 % 30.038 in Hg 0 in
09/01/2026 10:45 PM         76 °F 0 watt/m2 16 mph NNW 62 % 30.042 in Hg 0 in
09/01/2026 10:30 PM         77.2 °F 0 watt/m2 12 mph NE 63 % 30.052 in Hg 0 in
09/01/2026 10:15 PM         77.3 °F 0 watt/m2 5 mph S 63 % 30.047 in Hg 0 in
09/01/2026 10:00 PM         77.4 °F 0 watt/m2 5 mph SSW 63 % 30.039 in Hg 0 in
09/01/2026 09:45 PM         77.3 °F 0 watt/m2 10 mph NE 63 % 30.052 in Hg 0 in
09/01/2026 09:30 PM         77.9 °F 0 watt/m2 18 mph NE 63 % 30.053 in Hg 0 in
09/01/2026 09:15 PM         80.3 °F 0 watt/m2 18 mph NE 59 % 30.036 in Hg 0 in
09/01/2026 09:00 PM         85 °F 0 watt/m2 7 mph N 62 % 30.005 in Hg 0 in
09/01/2026 08:45 PM         85.6 °F 0 watt/m2 5 mph SSE 61 % 29.997 in Hg 0 in
09/01/2026 08:30 PM         86.5 °F 0 watt/m2 4 mph S 59 % 29.995 in Hg 0 in
09/01/2026 08:15 PM         86.8 °F 0 watt/m2 5 mph SSW 58 % 29.994 in Hg 0 in
09/01/2026 08:00 PM         87.4 °F 0 watt/m2 4 mph SSW 57 % 29.984 in Hg 0 in
09/01/2026 07:45 PM         87.9 °F 0 watt/m2 6 mph SSW 56 % 29.963 in Hg 0 in
09/01/2026 07:30 PM         88.4 °F 3 watt/m2 4 mph SSW 55 % 29.99 in Hg 0 in
09/01/2026 07:15 PM         88.7 °F 5 watt/m2 5 mph S 54 % 29.994 in Hg 0 in
09/01/2026 07:00 PM         88.9 °F 9 watt/m2 3 mph S 53 % 29.994 in Hg 0 in
09/01/2026 06:45 PM         88.9 °F 6 watt/m2 7 mph SSW 53 % 29.992 in Hg 0 in
09/01/2026 06:30 PM         89 °F 8 watt/m2 9 mph SSW 53 % 29.993 in Hg 0 in
09/01/2026 06:15 PM         89.1 °F 13 watt/m2 10 mph SSW 54 % 29.988 in Hg 0 in
09/01/2026 06:00 PM         89.1 °F 11 watt/m2 12 mph S 54 % 29.984 in Hg 0 in
09/01/2026 05:45 PM         89.5 °F 11 watt/m2 9 mph SSW 54 % 29.994 in Hg 0 in
09/01/2026 05:30 PM         88.9 °F 9 watt/m2 14 mph SSW 55 % 29.993 in Hg 0 in
09/01/2026 05:15 PM         89.1 °F 9 watt/m2 12 mph SSW 55 % 29.995 in Hg 0 in
09/01/2026 05:00 PM         90 °F 15 watt/m2 6 mph SSE 53 % 30.003 in Hg 0 in
09/01/2026 04:45 PM         90.7 °F 20 watt/m2 4 mph SE 53 % 30.007 in Hg 0 in
09/01/2026 04:30 PM         91.1 °F 19 watt/m2 7 mph WNW 50 % 30.009 in Hg 0 in
09/01/2026 04:15 PM         90.8 °F 15 watt/m2 9 mph WNW 50 % 30.008 in Hg 0 in
09/01/2026 04:00 PM         90.3 °F 16 watt/m2 4 mph SSW 51 % 30.015 in Hg 0 in
09/01/2026 03:45 PM         89.8 °F 12 watt/m2 6 mph NW 52 % 30.017 in Hg 0 in
09/01/2026 03:30 PM         88.5 °F 16 watt/m2 6 mph W 53 % 30.022 in Hg 0 in
09/01/2026 03:15 PM         86.6 °F 11 watt/m2 10 mph SSE 55 % 30.024 in Hg 0 in
09/01/2026 03:00 PM         85.4 °F 10 watt/m2 9 mph S 59 % 30.029 in Hg 0 in
09/01/2026 02:45 PM         85.3 °F 19 watt/m2 9 mph SSE 60 % 30.036 in Hg 0 in
09/01/2026 02:30 PM         85 °F 8 watt/m2 10 mph SSE 59 % 30.032 in Hg 0 in
09/01/2026 02:15 PM         85 °F 7 watt/m2 12 mph SSE 58 % 30.032 in Hg 0 in
09/01/2026 02:00 PM         84.8 °F 13 watt/m2 14 mph S 57 % 30.035 in Hg 0 in
09/01/2026 01:45 PM         84.7 °F 13 watt/m2 9 mph SSE 57 % 30.045 in Hg 0 in
09/01/2026 01:30 PM         83.8 °F 25 watt/m2 1 mph NE 58 % 30.043 in Hg 0 in
09/01/2026 01:15 PM         83.1 °F 29 watt/m2 2 mph SSE 59 % 30.046 in Hg 0 in
09/01/2026 01:00 PM         83.1 °F 31 watt/m2 4 mph SSE 62 % 30.048 in Hg 0 in
09/01/2026 12:45 PM         82.9 °F 25 watt/m2 3 mph ESE 62 % 30.059 in Hg 0 in
09/01/2026 12:30 PM         82.5 °F 17 watt/m2 5 mph SE 61 % 30.062 in Hg 0 in
09/01/2026 12:15 PM         82.4 °F 14 watt/m2 7 mph SE 61 % 30.066 in Hg 0 in
09/01/2026 12:00 PM         82.2 °F 27 watt/m2 8 mph ESE 62 % 30.068 in Hg 0 in
09/01/2026 11:45 AM         82.4 °F 37 watt/m2 11 mph SSE 62 % 30.072 in Hg 0 in
09/01/2026 11:30 AM         82.6 °F 34 watt/m2 12 mph S 60 % 30.067 in Hg 0 in
09/01/2026 11:15 AM         81.8 °F 25 watt/m2 13 mph SSE 61 % 30.074 in Hg 0 in
09/01/2026 11:00 AM         81.6 °F 23 watt/m2 12 mph SSE 61 % 30.075 in Hg 0 in
09/01/2026 10:45 AM         82.7 °F 20 watt/m2 8 mph S 57 % 30.074 in Hg 0 in
09/01/2026 10:30 AM         81.4 °F 80 watt/m2 6 mph SSW 58 % 30.078 in Hg 0 in
09/01/2026 10:15 AM         79.9 °F 131 watt/m2 5 mph NW 61 % 30.08 in Hg 0 in
09/01/2026 10:00 AM         79.5 °F 13 watt/m2 2 mph ESE 63 % 30.078 in Hg 0 in
09/01/2026 09:45 AM         79.2 °F 14 watt/m2 4 mph ESE 63 % 30.082 in Hg 0 in
09/01/2026 09:30 AM         79.3 °F 18 watt/m2 5 mph S 63 % 30.07 in Hg 0 in
09/01/2026 09:15 AM         79.3 °F 17 watt/m2 6 mph S 62 % 30.074 in Hg 0 in
09/01/2026 09:00 AM         78.9 °F 21 watt/m2 3 mph SSW 63 % 30.082 in Hg 0 in
09/01/2026 08:45 AM         78.3 °F 34 watt/m2 4 mph SW 65 % 30.088 in Hg 0 in
09/01/2026 08:30 AM         77.7 °F 15 watt/m2 4 mph SSW 68 % 30.094 in Hg 0 in
09/01/2026 08:15 AM         77.1 °F 17 watt/m2 1 mph NNE 69 % 30.09 in Hg 0 in
09/01/2026 08:00 AM         76.4 °F 16 watt/m2 3 mph NW 69 % 30.088 in Hg 0 in
09/01/2026 07:45 AM         76 °F 10 watt/m2 3 mph WNW 69 % 30.083 in Hg 0 in
09/01/2026 07:30 AM         76.1 °F 4 watt/m2 2 mph S 69 % 30.08 in Hg 0 in
09/01/2026 07:15 AM         76.1 °F 0 watt/m2 2 mph S 69 % 30.083 in Hg 0 in
09/01/2026 07:00 AM         76 °F 0 watt/m2 4 mph SSW 69 % 30.088 in Hg 0 in
09/01/2026 06:45 AM         76.1 °F 0 watt/m2 4 mph SSW 68 % 30.085 in Hg 0 in
09/01/2026 06:30 AM         76.1 °F 0 watt/m2 2 mph SW 68 % 30.084 in Hg 0 in
09/01/2026 06:15 AM         76.1 °F 0 watt/m2 5 mph SSW 68 % 30.078 in Hg 0 in
09/01/2026 06:00 AM         76.2 °F 0 watt/m2 3 mph SSW 68 % 30.07 in Hg 0 in
09/01/2026 05:45 AM         76.2 °F 0 watt/m2 2 mph N 68 % 30.08 in Hg 0 in
09/01/2026 05:30 AM         76.1 °F 0 watt/m2 2 mph N 68 % 30.079 in Hg 0 in
09/01/2026 05:15 AM         76 °F 0 watt/m2 2 mph NW 67 % 30.086 in Hg 0 in
09/01/2026 05:00 AM         75.8 °F 0 watt/m2 3 mph N 67 % 30.088 in Hg 0 in
09/01/2026 04:45 AM         75.8 °F 0 watt/m2 2 mph NNW 66 % 30.091 in Hg 0 in
09/01/2026 04:30 AM         76.1 °F 0 watt/m2 2 mph W 66 % 30.089 in Hg 0 in
09/01/2026 04:15 AM         76.2 °F 0 watt/m2 3 mph SSW 66 % 30.085 in Hg 0 in
09/01/2026 04:00 AM         76.2 °F 0 watt/m2 4 mph SSW 66 % 30.087 in Hg 0 in
09/01/2026 03:45 AM         76.2 °F 0 watt/m2 1 mph WSW 65 % 30.085 in Hg 0 in
09/01/2026 03:30 AM         76.3 °F 0 watt/m2 2 mph SW 65 % 30.088 in Hg 0 in
09/01/2026 03:15 AM         76.2 °F 0 watt/m2 2 mph NNW 65 % 30.091 in Hg 0 in
09/01/2026 03:00 AM         76.3 °F 0 watt/m2 1 mph N 65 % 30.093 in Hg 0 in
09/01/2026 02:45 AM         76.3 °F 0 watt/m2 1 mph N 65 % 30.102 in Hg 0 in
09/01/2026 02:30 AM         76.3 °F 0 watt/m2 3 mph NW 65 % 30.105 in Hg 0 in
09/01/2026 02:15 AM         76.3 °F 0 watt/m2 2 mph NW 65 % 30.106 in Hg 0 in
09/01/2026 02:00 AM         76.6 °F 0 watt/m2 2 mph NW 65 % 30.111 in Hg 0 in
09/01/2026 01:45 AM         76.8 °F 0 watt/m2 2 mph NW 64 % 30.111 in Hg 0 in

Alarms Station information Line AP Subdivision PERRYVILLE